Location: Rosenheim
(47.8408°N, 12.2113°E)
Time: 19:55:17
(UTC+02:00)

ISS - Pass Details

Date: 30 March 2017
Orbit: 399 x 409 km, 51.6° (Epoch: 29 March)

Event Time Altitude Azimuth Distance (km) Brightness Sun altitude
Rises 20:47:54 0° 237° (WSW) 2,304 0.6 -12.1°
Reaches altitude 10° 20:49:58 10° 234° (SW) 1,450 -0.6 -12.5°
Maximum altitude 20:53:12 65° 152° (SSE) 446 -3.9 -13.0°
Enters shadow 20:55:19 20° 73° (ENE) 1,018 -2.3 -13.3°
